Погода в Нугуше

Россия / Республика Башкортостан     53°02′41″N   56°26′16″E
темп.,
°C
ветер,
м/с
пор.,
м/с
влажн.,
%
обл.,
%
осадки,
мм/ч
давл.,
гПа
погр.,
м
6 марта, сб
сб623:00−8сз1295100 2.3 100922
02:00−10зюз119884 0.1 101121
05:00−11ююз119890 0.3 101421
08:00−14юз11100100 0.1 101421
11:00−10юз119298 0.1 1015188
14:00−7юз238885 0.0 1015346
17:00−6зюз359090 0.0 1014500
20:00−11ю1296100 0.0 101421
7 марта, вс
вс723:00−11юв1193100 0.1 101421
02:00−11всв1193100 0.0 101221
05:00−10ссв1296100 0.4 101030
08:00−9с2396100 0.9 1008122
11:00−8с5793100 1.7 1007522
14:00−7ссз6880100 0.3 1008771
17:00−9сз588267 0.3 1010742
20:00−17з11980 0.0 101220
8 марта, пн
пн823:00−18ююз229740 0.0 101420
02:00−17ююв339699 0.1 101474
05:00−16ююв4109699 0.2 1012295
08:00−14ю81595100 0.2 1010482
11:00−9ююз91594100 1.3 1008886
14:00−5ююз91594100 1.5 10071095
17:00−4юз91594100 2.4 10061180
20:00−4юз81496100 0.9 10061008
9 марта, вт
вт923:00−4ююз71495100 1.4 1006888
02:00−4ююз71397100 0.6 1005792
05:00−4юз81396100 1.9 1005930
08:00−8з61295100 1.8 1007505
11:00−9зюз3694100 1.9 1011403
14:00−8зюз579099 0.0 1013621
17:00−8зюз479099 0.1 1013570
20:00−14юз229995 0.1 101420
10 марта, ср
ср1023:00−16ююв119897 0.1 101620
02:00−16ююв1197100 0.1 101520
05:00−18всв1199100 0.1 101520
08:00−18всв119568 0.0 101420
11:00−12с118784 0.0 1013240
14:00−9ссз3392100 0.3 1011388
17:00−11ссз5892100 1.0 1009398
20:00−15ссз4995100 0.2 1010334